Zurück zum Katalog

SL-12 R/B(2)

AktivGEO
NORAD 21135·ROCKET BODY·🇷🇺 Russia

Gestartet Feb 28, 1991 von Baikonur Cosmodrome

Loading…

TLE

AktuellSource: Space-Track

Epoche: Sep 1, 2026, 19:49 UTC

1 21135U 91014D   26244.82607830 -.00000141  00000-0  00000-0 0  9996
2 21135  11.7796 330.8044 0024417 151.8889 206.5087  1.03432186134133

Verfolge SL-12 R/B(2) in Echtzeit mit AllMySat

Download on the App Store